FENGYUN 2B AKM, 26460

Orbit data source: Space-Track

FENGYUN 2B AKM, 26460 is space debris in GEO originally from a launch on Sun, 25 Jun 2000 UTC launched from the Xichang Space Center, China (XSC). Debris objects in space refer to the collection of defunct objects orbiting the Earth. Examples of debris include non-operational satellites, rocket bodies, and fragments generated from explosions, collisions, or faulty payload assembly.

Loading next visibility...
Identifier
26460, 2000-032C
Orbit
GEO
Country
Flag of CNCN / PRC
Related business
Manufacturer
China ARMT
Mission
Spacecraft
Bus & Motor
SHANXI AKM, Unknown motor
Mass
729 kg wet, ~50 kg dry
Launch date (UTC)
2000-06-25 (25 years ago)
Launch vehicle
Unknown
Launch site
Xichang Space Center, China (XSC)
Object type
Payload
Rocket body
Debris
Shape & HBR
Cyl + Cone, 0.8 m
Radar Cross Section
1.571 m², Large (>1 m²)

Expand to show TLE details & history
Last TLE update: 15 hours ago

TLE from 15 hours ago
0 FENGYUN 2B AKM
1 26460U 00032C   25258.34297425 -.00000077  00000-0  00000-0 0  9996
2 26460  14.2932   8.3438 0021246  40.1023 320.0781  1.00135116119439
Epoch: 2025-09-15T08:13Z
TLE epoch observation values (Epoch: 2025-09-15T08:13:52.975Z)
Latitude
Longitude
-109.66442°
Altitude
35,755.764 km
Speed
3.078 km/s
True Right ascension
00h 33m 25s
True Declination
0° 00' 00"
Sunlit
Object was in daylight at epoch
Visualization orbit readout
Latitude
Unknown
Longitude
Unknown
Altitude
Unknown
Speed
Unknown
Apparent Right ascension
Unknown
Apparent Declination
Unknown
Sunlit
N/A
Visualization observer readout
Local Sidereal Time
15:49:53
Azimuth
Unknown
Elevation
Unknown
Doppler factor
Unknown
Orbital elements
Apogee altitude
35,915.593 km
Perigee altitude
35,736.259 km
Semi-major axis
42,204.063 km
Eccentricity
0.00212
Inclination
14.2932°
RAAN
8.3438°
Arg. of periapsis
40.1023°
True anomaly
319.92154°
Mean anomaly
320.0781°
Eccentric anomaly
319.99985°
Mean motion
0.25033 °/min
Orbital period
1,438.11 mins
BSTAR
0
Loading maneuver chart data...
Computing Atmospheric mass density...
Loading historical data...
Loading historical data...
Loading historical data...
Loading historical data...
Loading historical data...
Loading historical data...
Loading historical data...
Other satellites on launch #32 in the year 2000 (2000-06-25 UTC)

Documentation

Showing up to 5 results
|